This is the latest recevied weather packets stored in our database for station/object N3SBK. If no packets are shown the sender has not sent any weather packets the latest 10 day(s).
| Time | Temp. | Humidity | Pressure | Rain* | Wind** | Luminosity | Snow |
|---|---|---|---|---|---|---|---|
| 1788052896 | 21.67° C | 60% | 1013.5 hPa | 0 mm | - | 0 W/m² | - |
| 1788052596 | 21.67° C | 60% | 1013.6 hPa | 0 mm | - | 0 W/m² | - |
| 1788052291 | 21.67° C | 61% | 1013.5 hPa | 0 mm | - | 0 W/m² | - |
| 1788051986 | 21.67° C | 61% | 1013.4 hPa | 0 mm | - | 0 W/m² | - |
| 1788051681 | 21.67° C | 61% | 1013.5 hPa | 0 mm | - | 0 W/m² | - |
| 1788051380 | 21.67° C | 62% | 1013.3 hPa | 0 mm | - | 0 W/m² | - |
| 1788051079 | 21.67° C | 62% | 1013.3 hPa | 0 mm | - | 0 W/m² | - |
| 1788050779 | 21.67° C | 62% | 1013.4 hPa | 0 mm | - | 0 W/m² | - |
| 1788050474 | 21.67° C | 63% | 1013.4 hPa | 0 mm | - | 0 W/m² | - |
| 1788050169 | 21.67° C | 63% | 1013.4 hPa | 0 mm | - | 0 W/m² | - |
| 1788049864 | 21.67° C | 64% | 1013.2 hPa | 0 mm | - | 0 W/m² | - |
| 1788049561 | 21.67° C | 64% | 1013.4 hPa | 0 mm | - | 0 W/m² | - |
| 1788049257 | 21.67° C | 64% | 1013.4 hPa | 0 mm | - | 0 W/m² | - |
| 1788048957 | 21.67° C | 64% | 1013.4 hPa | 0 mm | - | 0 W/m² | - |
| 1788048653 | 21.67° C | 64% | 1013.4 hPa | 0 mm | - | 0 W/m² | - |
| 1788048350 | 21.67° C | 65% | 1013.3 hPa | 0 mm | - | 0 W/m² | - |
| 1788048045 | 21.67° C | 64% | 1013.4 hPa | 0 mm | - | 1 W/m² | - |
| 1788047742 | 21.67° C | 65% | 1013.6 hPa | 0 mm | - | 1 W/m² | - |
| 1788047437 | 21.67° C | 64% | 1013.5 hPa | 0 mm | - | 2 W/m² | - |
| 1788047132 | 21.67° C | 65% | 1013.5 hPa | 0 mm | - | 3 W/m² | - |
| 1788046832 | 21.67° C | 67% | 1013.6 hPa | 0 mm | - | 4 W/m² | - |
| 1788046531 | 21.67° C | 69% | 1013.5 hPa | 0 mm | - | 6 W/m² | - |
| 1788046227 | 22.22° C | 67% | 1013.5 hPa | 0 mm | - | 6 W/m² | - |
| 1788045924 | 22.78° C | 64% | 1013.7 hPa | 0 mm | - | 8 W/m² | - |
| 1788045620 | 22.78° C | 62% | 1013.6 hPa | 0 mm | - | 11 W/m² | - |
* Rain latest hour (hover to see other rain measurements)
** Current wind speed in m/s (hover to see current wind gust speed)